Ogallala, NE

10:39 AM MDT on May 26, 2017 (GMT -0600)
Searle

Weather History for KOGA - January, 2013

Change the Weather History Date:

Saturday, January 26, 2013

  Actual Average Record
Temperature  
Mean Temperature 41 °F -  
Max Temperature 61 °F 37 °F 70 °F (1951)
Min Temperature 21 °F 12 °F -22 °F (1950)
Degree Days  
Heating Degree Days 24    
Moisture  
Dew Point 26 °F    
Average Humidity 60    
Maximum Humidity 89    
Minimum Humidity 28    
Precipitation  
Precipitation 0.00 in - - ()
Sea Level Pressure  
Sea Level Pressure 29.93 in    
Wind  
Wind Speed 2 mph (SW)    
Max Wind Speed 10 mph    
Max Gust Speed -    
Visibility 10 miles    
Events Rain    
Averages and records for this station are not official NWS values.
T = Trace of Precipitation, MM = Missing Value Source: NWS Daily Summary

Daily Weather History Graph

Daily Weather History Graph

Search for Another Location

Airport or City:

Trip Planner

Search our weather history database for the weather conditions in past years. The results will help you decide how hot, cold, wet, or windy it might be!

Date:

Astronomy

Jan. 26, 2013 Rise Set
Actual Time 7:03 AM MST 4:56 PM MST
Civil Twilight 6:33 AM MST 5:26 PM MST
Nautical Twilight 6:00 AM MST 5:59 PM MST
Astronomical Twilight 5:27 AM MST 6:32 PM MST
Moon 4:54 PM MST 6:21 AM MST
Length of Visible Light 10h 52m
Length of Day
9h 53m
Full, 100% of the Moon is Illuminated
Jan 26
Full
Jan 26
Full
Feb 3
Last Quarter
Feb 10
New
Feb 17
First Quarter

Hourly Weather History & Observations

Time (MST) Temp. Windchill Dew Point Humidity Pressure Visibility Wind Dir Wind Speed Gust Speed Precip Events Conditions
12:15 AM 27.1 °F 23.2 °F 22.3 °F 82% 30.07 in 10.0 mi West 3.5 mph - N/A   Clear
12:35 AM 26.1 °F 20.5 °F 21.4 °F 82% 30.07 in 10.0 mi West 4.6 mph - N/A   Clear
12:55 AM 24.4 °F 20.1 °F 20.7 °F 86% 30.07 in 10.0 mi West 3.5 mph - N/A   Clear
1:15 AM 25.7 °F 21.5 °F 21.4 °F 84% 30.07 in 10.0 mi West 3.5 mph - N/A   Clear
1:35 AM 25.7 °F 21.5 °F 21.2 °F 83% 30.06 in 10.0 mi WSW 3.5 mph - N/A   Clear
1:55 AM 24.8 °F - 21.0 °F 86% 30.05 in 10.0 mi Calm Calm - N/A   Clear
2:15 AM 27.5 °F - 22.8 °F 83% 30.04 in 10.0 mi Calm Calm - N/A   Clear
2:35 AM 27.5 °F - 22.6 °F 82% 30.03 in 10.0 mi Calm Calm - N/A   Clear
2:55 AM 27.0 °F - 22.5 °F 83% 30.02 in 10.0 mi Calm Calm - N/A   Clear
3:15 AM 26.8 °F - 22.3 °F 83% 30.02 in 10.0 mi Calm Calm - N/A   Clear
3:35 AM 26.1 °F - 22.5 °F 86% 30.02 in 10.0 mi Calm Calm - N/A   Clear
3:55 AM 26.1 °F - 22.3 °F 86% 30.02 in 10.0 mi Calm Calm - N/A   Clear
4:15 AM 27.5 °F - 23.4 °F 84% 30.01 in 10.0 mi Calm Calm - N/A   Clear
4:35 AM 27.7 °F - 23.4 °F 84% 30.01 in 10.0 mi Calm Calm - N/A   Clear
4:55 AM 27.3 °F - 23.4 °F 85% 30.01 in 10.0 mi Calm Calm - N/A   Clear
5:15 AM 27.0 °F - 23.0 °F 85% 30.00 in 10.0 mi Calm Calm - N/A   Clear
5:35 AM 27.0 °F - 23.2 °F 86% 30.00 in 10.0 mi Calm Calm - N/A   Clear
6:15 AM 24.4 °F - 21.0 °F 87% 29.99 in 10.0 mi Calm Calm - N/A   Clear
6:35 AM 25.3 °F - 21.7 °F 86% 30.00 in 10.0 mi Calm Calm - N/A   Clear
6:55 AM 22.8 °F - 20.1 °F 89% 30.00 in 10.0 mi Calm Calm - N/A   Clear
7:15 AM 21.9 °F - 19.2 °F 89% 30.00 in 10.0 mi Calm Calm - N/A   Clear
7:35 AM 22.6 °F - 19.8 °F 89% 30.00 in 10.0 mi Calm Calm - N/A   Clear
7:55 AM 25.0 °F - 21.7 °F 87% 30.00 in 10.0 mi Calm Calm - N/A   Clear
8:15 AM 27.9 °F - 23.9 °F 85% 30.00 in 10.0 mi Calm Calm - N/A   Clear
8:35 AM 30.9 °F 25.2 °F 25.5 °F 80% 30.00 in 10.0 mi West 5.8 mph - N/A   Clear
8:55 AM 32.4 °F 24.6 °F 26.2 °F 78% 30.00 in 10.0 mi WSW 9.2 mph - N/A   Clear
9:15 AM 34.5 °F 29.4 °F 27.1 °F 74% 30.00 in 10.0 mi WSW 5.8 mph - N/A   Clear
9:35 AM 37.0 °F 33.3 °F 27.3 °F 68% 30.00 in 10.0 mi SW 4.6 mph - N/A   Clear
9:55 AM 39.4 °F 36.1 °F 27.7 °F 63% 29.99 in 10.0 mi WSW 4.6 mph - N/A   Clear
10:15 AM 42.1 °F - 28.4 °F 58% 29.98 in 10.0 mi Calm Calm - N/A   Clear
10:35 AM 44.2 °F 42.7 °F 28.8 °F 55% 29.97 in 10.0 mi WSW 3.5 mph - N/A   Clear
10:55 AM 46.2 °F 44.1 °F 28.9 °F 51% 29.97 in 10.0 mi West 4.6 mph - N/A   Clear
11:15 AM 47.8 °F - 28.9 °F 48% 29.95 in 10.0 mi WSW 3.5 mph - N/A   Clear
11:35 AM 50.4 °F - 28.8 °F 43% 29.95 in 10.0 mi West 4.6 mph - N/A   Clear
11:55 AM 51.8 °F - 29.3 °F 42% 29.94 in 10.0 mi West 3.5 mph - N/A   Clear
12:15 PM 53.4 °F - 29.5 °F 40% 29.93 in 10.0 mi WSW 4.6 mph - N/A   Clear
12:35 PM 56.1 °F - 28.8 °F 35% 29.91 in 10.0 mi Calm Calm - N/A   Clear
12:55 PM 57.4 °F - 28.4 °F 33% 29.90 in 10.0 mi West 4.6 mph - N/A   Clear
1:15 PM 59.4 °F - 28.8 °F 31% 29.88 in 10.0 mi SW 3.5 mph - N/A   Clear
1:35 PM 59.9 °F - 28.6 °F 30% 29.88 in 10.0 mi Calm Calm - N/A   Clear
1:55 PM 60.8 °F - 28.0 °F 29% 29.87 in 10.0 mi Calm Calm - N/A   Clear
2:15 PM 61.2 °F - 27.9 °F 28% 29.87 in 10.0 mi Calm Calm - N/A   Clear
2:35 PM 61.7 °F - 28.0 °F 28% 29.86 in 10.0 mi SSE 3.5 mph - N/A   Clear
2:55 PM 61.5 °F - 28.2 °F 28% 29.86 in 10.0 mi Calm Calm - N/A   Clear
3:15 PM 61.9 °F - 28.4 °F 28% 29.85 in 10.0 mi SE 3.5 mph - N/A   Clear
3:35 PM 60.6 °F - 28.8 °F 30% 29.85 in 10.0 mi SSE 10.4 mph - N/A   Clear
3:55 PM 56.8 °F - 27.7 °F 33% 29.85 in 10.0 mi SSE 10.4 mph - N/A   Clear
4:15 PM 55.0 °F - 27.0 °F 34% 29.85 in 10.0 mi SE 9.2 mph - N/A   Clear
4:35 PM 52.3 °F - 26.6 °F 37% 29.85 in 10.0 mi SSE 9.2 mph - N/A   Clear
4:55 PM 49.6 °F - 27.5 °F 42% 29.86 in 10.0 mi SE 4.6 mph - N/A   Clear
5:15 PM 48.2 °F - 27.3 °F 44% 29.86 in 10.0 mi Calm Calm - N/A   Clear
5:35 PM 47.7 °F - 27.0 °F 45% 29.86 in 10.0 mi Calm Calm - N/A   Clear
5:55 PM 48.0 °F - 27.1 °F 44% 29.86 in 10.0 mi SE 4.6 mph - N/A   Clear
6:15 PM 48.6 °F - 27.5 °F 44% 29.85 in 10.0 mi Calm Calm - N/A   Clear
6:35 PM 48.4 °F - 27.9 °F 45% 29.85 in 10.0 mi Calm Calm - N/A   Clear
6:55 PM 48.0 °F - 27.7 °F 45% 29.85 in 10.0 mi Calm Calm - N/A   Clear
7:15 PM 48.0 °F - 28.0 °F 46% 29.84 in 10.0 mi Calm Calm - N/A   Clear
7:35 PM 46.4 °F - 28.4 °F 50% 29.84 in 10.0 mi Calm Calm - N/A   Clear
7:55 PM 45.7 °F - 28.4 °F 51% 29.83 in 10.0 mi Calm Calm - N/A   Clear
8:15 PM 45.9 °F 43.6 °F 28.9 °F 52% 29.83 in 10.0 mi SSE 4.6 mph - N/A   Scattered Clouds
8:35 PM 45.7 °F - 28.9 °F 52% 29.83 in 10.0 mi Calm Calm - N/A   Mostly Cloudy
8:55 PM 45.5 °F - 28.9 °F 52% 29.82 in 10.0 mi Calm Calm - N/A   Mostly Cloudy
9:15 PM 45.3 °F - 28.9 °F 53% 29.81 in 10.0 mi Calm Calm - N/A   Overcast
9:35 PM 45.5 °F - 28.8 °F 52% 29.81 in 10.0 mi Calm Calm - N/A   Overcast
9:55 PM 45.5 °F - 28.8 °F 52% 29.81 in 10.0 mi Calm Calm - N/A   Overcast
10:15 PM 44.1 °F 41.5 °F 28.9 °F 55% 29.81 in 10.0 mi West 4.6 mph - N/A   Overcast
10:35 PM 44.2 °F - 28.9 °F 55% 29.81 in 10.0 mi Calm Calm - N/A   Overcast
10:55 PM 44.6 °F 42.2 °F 29.3 °F 55% 29.80 in 10.0 mi South 4.6 mph - N/A   Overcast
11:15 PM 44.8 °F - 29.3 °F 55% 29.79 in 10.0 mi Calm Calm - N/A Rain Light Rain
11:35 PM 43.7 °F 42.1 °F 31.8 °F 63% 29.78 in 10.0 mi West 3.5 mph - N/A Rain Light Rain
11:55 PM 42.4 °F - 32.5 °F 68% 29.78 in 10.0 mi Calm Calm - N/A   Overcast